Tracking 28333 objects as of 10-Dec-2023
HD Live streaming from Space Station
objects crossing your sky now

COSMOS 1782

Track COSMOS 1782 now!
10-day predictions
COSMOS 1782 is classified as:


NORAD ID: 16986
Int'l Code: 1986-074A
Perigee: 525.7 km
Apogee: 535.9 km
Inclination: 82.5 °
Period: 95.1 minutes
Semi major axis: 6901 km
RCS: 9.471 m2 (large)
Launch date: September 30, 1986
Source: Commonwealth of Independent States (former USSR) (CIS)
Launch site: PLESETSK MISSILE AND SPACE COMPLEX (PKMTR)
Your satellite tracking list
Your tracking list is empty




NASA's NSSDC Master Catalog

Two Line Element Set (TLE):
1 16986U 86074A   23343.92999868  .00004323  00000-0  23569-3 0  9990
2 16986  82.5326 335.0532 0007374 191.8310 168.2750 15.14122260  6361
Source of the keplerian elements: AFSPC